Location: ?????
(30.2541°N, 31.0910°E)
Time: 01:48:41
(UTC+00:00)

USA 234 - Pass Details

Date: 27 September 2022
Orbit: 1099 x 1109 km, 123.0° (Epoch: 24 November)

Event Time Altitude Azimuth Distance (km) Brightness Sun altitude
Rises 00:45:55 0° 47° (NE) 3,917 7.0 -38.8°
Reaches altitude 10° 00:48:29 10° 52° (NE) 2,958 6.2 -38.3°
Enters shadow 00:53:59 48° 104° (ESE) 1,403 3.9 -37.2°
